Погода в Герцлии

Израиль     32°09′52″N   34°50′31″E
темп.,
°C
ветер,
м/с
пор.,
м/с
влажн.,
%
обл.,
%
осадки,
мм/ч
давл.,
гПа
погр.,
м
26 октября, вт
вт2600:00+22с22700 0.0 1015623
03:00+22с237012 0.0 1015675
06:00+22ссв237041 0.0 1015776
09:00+22всв126634 0.0 1016829
12:00+24ссз22590 0.0 1015926
15:00+24ссз55620 0.0 1014929
18:00+23с66630 0.0 1015827
21:00+23с56610 0.0 1016742
27 октября, ср
ср2700:00+23с45620 0.0 1016634
03:00+23с44620 0.0 1016687
06:00+23ссв44620 0.0 1016679
09:00+23с33580 0.0 1017807
12:00+24ссз44560 0.0 1017836
15:00+24ссз55550 0.0 1016807
18:00+24с66590 0.0 1016756
21:00+23с55615 0.0 1017703
28 октября, чт
чт2800:00+23с33620 0.0 1017570
03:00+23с23630 0.0 1016604
06:00+22ссв23655 0.0 1016610
09:00+23ссз12635 0.1 1017733
12:00+24сз33625 0.1 1017878
15:00+24сз44635 0.1 1016881
18:00+23ссз44655 0.0 1016756
21:00+23с33655 0.0 1016657
29 октября, пт
пт2900:00+22с22665 0.0 1016606
03:00+22ссв2267100 0.0 1015646
06:00+21всв226999 0.0 1015436
09:00+22в116892 0.0 1016443
12:00+23сз2162100 0.0 1016699
15:00+23сз435910 0.0 1014753
18:00+23с44595 0.0 1014704
21:00+23с33600 0.0 1015779
30 октября, сб
сб3000:00+22с22600 0.0 1015745
03:00+22сз12590 0.0 1015840
06:00+22сз12590 0.0 1015936
09:00+22в01580 0.0 1016736
12:00+23зсз21525 0.0 10161050
15:00+23зсз4352100 0.0 1015955
18:00+23сз335356 0.0 1016789
21:00+22ссз335368 0.0 1017879